map of THE home
Great Circle Mapper logo
THE - Airport
Location
City:  Teresina, Piauí, Brazil
Name:Senador Petrônio Portella
ICAO:SBTE
IATA:THE

Details
Type:Airport (Aerodrome, Airfield)
Use:Public/Civil
Latitude:5°03'36"S (-5.059941)
Longitude:42°49'25"W (-42.823477)
Datum:WGS 1984
Elevation:219 ft (67 m)
Variation:21.54°W (WMM2015 magnetic declination)
-0.00° annual change
Runways:1
Longest:7218 × 148 ft (2200 × 45 m), paved

Time
Time Zone:UTC-3
Local Time:

Weather
METAR:SBTE 300800Z 00000KT CAVOK 25/23 Q1010
TAF:SBTE 300200Z 3006/3018 00000KT CAVOK TN25/3009Z TX34/3017Z PROB30 3008/3010 BKN012
BECMG 3010/3011 08007KT SCT020
RMK PCN

Related Locations
Nearby:
Farthest:WAKG: 12375 mi / 19915 km
Ewer [Ewer Airport], PP, ID

Find:

   beyond  
but within

Other Information
Maps:
NOTAMs:
Links:
Sources:

  
flag of Brazil
flag of Piauí
  

Sectional Chart

Flight Planning
at skyvector.com

Satellite Image

Google Maps Satellite view

 

Copyright © 2004-2016 Karl L. Swartz. All rights reserved.
The Great Circle Mapper name and logo are trademarks of the Great Circle Mapper.
All other trademarks mentioned herein belong to their respective owners.
Please see credits for attibutions and further copyright information.

  Follow gcmap on Facebook Follow gcmap on Twitter Follow gcmap on Google+ GCmap on LinkedIn

hCard Microformat

Geo Microformat